Tucson, AZ

6:43 AM MST on July 22, 2017 (GMT -0700)
Tucson International

Weather History for KTUS - April, 2014

Change the Weather History Date:

Monday, April 14, 2014

  Actual Average Record
Temperature  
Mean Temperature 68 °F 66 °F  
Max Temperature 83 °F 82 °F 99 °F (1925)
Min Temperature 53 °F 51 °F 33 °F (1922)
Degree Days  
Heating Degree Days 0 2  
Month to date heating degree days 21 39  
Since 1 July heating degree days 896 1485  
Cooling Degree Days 3 4  
Month to date cooling degree days 61 37  
Year to date cooling degree days 115 70  
Growing Degree Days 18 (Base 50)    
Moisture  
Dew Point 13 °F    
Average Humidity 18    
Maximum Humidity 32    
Minimum Humidity 4    
Precipitation  
Precipitation 0.00 in 0.01 in 0.25 in (1916)
Month to date precipitation 0.00 0.20  
Year to date precipitation 0.59 2.73  
Sea Level Pressure  
Sea Level Pressure 29.93 in    
Wind  
Wind Speed 6 mph (WNW)    
Max Wind Speed 14 mph    
Max Gust Speed 17 mph    
Visibility 10 miles    
Events      
T = Trace of Precipitation, MM = Missing Value Source: NWS Daily Summary

Daily Weather History Graph

Daily Weather History Graph

Search for Another Location

Airport or City:

Trip Planner

Search our weather history database for the weather conditions in past years. The results will help you decide how hot, cold, wet, or windy it might be!

Date:

Astronomy

Apr. 14, 2014 Rise Set
Actual Time 5:55 AM MST 6:52 PM MST
Civil Twilight 5:30 AM MST 7:17 PM MST
Nautical Twilight 5:01 AM MST 7:47 PM MST
Astronomical Twilight 4:30 AM MST 8:18 PM MST
Moon 6:35 PM MST (4/14) 5:27 AM MST (4/14)
Length of Visible Light 13h 46m
Length of Day
12h 56m
Full, 100% of the Moon is Illuminated
Apr 14
Full
Apr 15
Full
Apr 22
Last Quarter
Apr 28
New
May 6
First Quarter

Hourly Weather History & Observations

Time (MST) Temp. Dew Point Humidity Pressure Visibility Wind Dir Wind Speed Gust Speed Precip Events Conditions
12:53 AM 64.9 °F 26.1 °F 23% 29.84 in 10.0 mi ESE 6.9 mph - N/A   Clear
1:53 AM 60.8 °F 26.6 °F 27% 29.95 in 10.0 mi East 4.6 mph - N/A   Clear
2:53 AM 59.0 °F 28.0 °F 31% 29.86 in 10.0 mi WSW 4.6 mph - N/A   Clear
3:53 AM 57.9 °F 26.1 °F 30% 29.86 in 10.0 mi South 6.9 mph - N/A   Clear
4:53 AM 55.9 °F 25.0 °F 30% 29.88 in 10.0 mi South 4.6 mph - N/A   Clear
5:53 AM 53.1 °F 25.0 °F 34% 29.91 in 10.0 mi SSW 4.6 mph - N/A   Clear
6:53 AM 57.9 °F 25.0 °F 28% 29.93 in 10.0 mi South 3.5 mph - N/A   Clear
7:16 AM 60.1 °F 25.0 °F 26% 30.04 in 4.0 mi SE 3.5 mph - N/A   Partly Cloudy
7:53 AM 62.1 °F 23.0 °F 22% 29.96 in 10.0 mi NW 5.8 mph - N/A   Clear
8:53 AM 66.9 °F 21.0 °F 17% 29.96 in 10.0 mi Calm Calm - N/A   Clear
9:53 AM 73.0 °F 15.1 °F 11% 29.97 in 10.0 mi NNE 3.5 mph - N/A   Clear
10:01 AM 72.0 °F 15.1 °F 11% 30.08 in 2.5 mi North - - N/A   Partly Cloudy
10:08 AM 73.0 °F 16.0 °F 11% 30.08 in 10.0 mi NNW 6.9 mph - N/A   Clear
10:53 AM 75.0 °F 5.0 °F 7% 29.97 in 10.0 mi NNW 13.8 mph - N/A   Clear
11:53 AM 75.0 °F 6.1 °F 7% 29.96 in 10.0 mi NW 5.8 mph - N/A   Clear
12:53 PM 78.1 °F 3.0 °F 5% 29.95 in 10.0 mi NNW 6.9 mph - N/A   Clear
1:53 PM 78.1 °F 3.9 °F 6% 29.94 in 10.0 mi NE 3.5 mph - N/A   Clear
2:53 PM 80.1 °F 6.1 °F 6% 29.91 in 10.0 mi Calm Calm - N/A   Clear
3:53 PM 82.0 °F 5.0 °F 5% 29.89 in 10.0 mi West 5.8 mph - N/A   Clear
4:53 PM 81.0 °F 1.9 °F 5% 29.88 in 10.0 mi Variable 5.8 mph - N/A   Clear
5:53 PM 81.0 °F 1.0 °F 5% 29.88 in 10.0 mi NW 6.9 mph - N/A   Clear
6:53 PM 78.1 °F -2.9 °F 4% 29.88 in 10.0 mi NNW 5.8 mph - N/A   Clear
7:53 PM 75.0 °F 3.0 °F 6% 29.91 in 10.0 mi NW 9.2 mph - N/A   Clear
8:53 PM 73.0 °F 8.1 °F 8% 29.94 in 10.0 mi NW 5.8 mph - N/A   Clear
9:53 PM 71.1 °F 8.1 °F 9% 29.94 in 10.0 mi WNW 6.9 mph - N/A   Clear
10:53 PM 64.9 °F 10.9 °F 12% 29.95 in 10.0 mi SW 6.9 mph - N/A   Clear
11:53 PM 63.0 °F 12.0 °F 14% 29.95 in 10.0 mi SSE 4.6 mph - N/A   Clear